Flag for U.S.A. Weather past 2 weeks in Cheyenne, Wyoming, U.S.A.

Now
31 °F

Partly sunny.


Feels Like: 19 °F
Forecast: 21 / 33 °F
Wind: 20 mph from Northwest

Location: Cheyenne Airport

Current Time: Dec 22, 2014 at 3:12:27 PM

Latest Report: Dec 22, 2014 at 1:53 PM


Visibility: 10 mi

Pressure: 29.71 "Hg

Humidity: 59%

Dew point: 18 °F

Location of CheyenneLocation

Historic Weather in Cheyenne — Graph

°F

Cheyenne temperature yesterday

Maximum temperature yesterday: 45 °F (at 2:53 PM)
Minimum temperature yesterday: 31 °F (at 8:53 PM)
Average temperature yesterday: 38 °F

Past Weeks' High & Low Weather Summary

 TemperatureHumidityPressure
High64 °F (Dec 12, 12:53 PM)89% (Dec 21, 8:53 PM)30.39 "Hg (Dec 21, 8:53 PM)
Low17 °F (Dec 16, 12:53 AM)11% (Dec 12, 12:53 PM)29.44 "Hg (Dec 21, 2:53 PM)
Average35 °F54%30.01 "Hg
* Reported Dec 7 12:53 PM — Dec 22 12:53 PM, Cheyenne, Weather by CustomWeather, © 2014

Note: Actual official high and low records may vary slightly from our data, if they occured in-between our weather recording intervals... More about our weather records

Advertising

Cheyenne weather history for previous 24 hours

 ConditionsComfort  
Time TempWeatherWind HumidityBarometerVisibility
12:53 PM
Dec 22
32 °FMore clouds than sun.15 mph56%29.69 "Hg10 mi
11:53 AM30 °FOvercast.15 mph66%29.72 "Hg10 mi
10:53 AM30 °FCloudy.17 mph61%29.73 "Hg10 mi
9:53 AM30 °FOvercast.17 mph61%29.73 "Hg10 mi
8:53 AM27 °FMostly cloudy.12 mph58%29.77 "Hg10 mi
7:53 AM25 °FSunny.10 mph63%29.75 "Hg10 mi
6:53 AM25 °FClear.10 mph69%29.75 "Hg10 mi
5:53 AM26 °FClear.12 mph69%29.74 "Hg10 mi
4:53 AM28 °FPassing clouds.15 mph66%29.72 "Hg10 mi
3:53 AM28 °FClear.12 mph69%29.70 "Hg10 mi
2:53 AM29 °FPassing clouds.22 mph72%29.68 "Hg10 mi
1:53 AM29 °FPassing clouds.20 mph69%29.66 "Hg10 mi
12:53 AM32 °FMostly cloudy.26 mph64%29.64 "Hg10 mi
12:02 AM31 °FLight snow. Mostly cloudy.23 mph79%29.66 "Hg2 mi
11:53 PM
Dec 21
32 °FLight snow. Passing clouds.32 mph73%29.65 "Hg4 mi
10:53 PM31 °FPassing clouds.16 mph67%29.62 "Hg10 mi
9:53 PM33 °FPassing clouds.16 mph66%29.60 "Hg10 mi
8:53 PM31 °FHeavy snow. Ice fog.20 mph89%29.64 "Hg0 mi
7:53 PM37 °FPassing clouds.20 mph76%29.54 "Hg10 mi
6:53 PM38 °FPassing clouds.18 mph76%29.54 "Hg10 mi
5:53 PM38 °FLight rain. Mostly cloudy.13 mph79%29.52 "Hg10 mi
4:53 PM39 °FMostly cloudy.14 mph73%29.51 "Hg10 mi
3:53 PM43 °FBroken clouds.26 mph56%29.48 "Hg10 mi
Weather by CustomWeather, © 2014

See weather overviewHow to use our weather pages